Theta_e
361 362 362 362 362 361 360 361 360 360 359 358 359 359 359 359 359 359 359 361 362 361 360 359 359 359 358 358 357 356 356 356 355 354 354 353 352 351 348 346 345 344
361 361 361 361 362 361 361 361 361 361 360 359 358 358 359 360 360 360 360 361 362 361 360 360 359 359 358 357 357 357 357 357 356 354 354 353 353 352 349 347 347 346
361 361 361 362 362 362 361 361 361 361 360 359 359 358 358 359 361 361 361 361 361 360 360 360 359 359 359 358 358 358 357 357 357 355 354 354 353 352 349 347 347 346
361 361 361 362 362 361 361 361 361 361 360 360 359 359 358 359 361 362 362 361 360 360 360 360 360 359 359 359 359 358 357 358 357 356 355 355 354 353 350 348 346 345
361 361 362 362 361 361 361 361 360 361 360 359 360 360 360 360 360 361 362 362 361 360 360 360 360 360 359 360 360 359 358 358 358 357 356 355 355 353 350 348 347 345
362 362 362 363 362 361 361 361 361 360 360 360 360 360 360 360 360 360 360 362 361 360 360 360 361 360 360 360 360 360 358 358 358 357 357 356 355 353 351 349 348 347
362 362 362 362 362 361 361 361 361 360 360 360 360 360 360 361 361 360 360 361 361 361 360 360 361 361 360 361 361 360 360 360 358 357 357 357 355 354 351 349 350 348
362 362 362 362 361 361 361 361 361 361 360 360 360 360 361 361 361 361 361 361 361 361 361 361 362 362 362 361 361 361 361 360 359 357 357 357 355 355 353 351 350 349
361 361 361 361 361 361 360 360 361 361 361 360 360 360 361 361 361 362 361 362 361 361 362 361 362 364 362 361 362 362 362 360 359 358 359 358 356 355 355 352 350 350
361 361 361 361 360 360 360 360 360 361 361 361 360 359 360 361 361 361 362 363 362 362 363 362 363 364 364 362 362 363 362 360 359 359 359 359 357 356 355 353 351 350
360 360 360 360 360 359 359 359 359 360 360 360 360 360 359 361 361 362 362 363 363 362 363 363 363 364 364 363 362 362 361 360 360 360 360 359 359 357 355 354 352 351
360 360 359 360 360 359 359 358 358 358 359 360 360 360 359 360 361 362 362 363 364 363 363 363 363 364 364 363 362 361 361 360 360 360 360 359 358 357 356 354 353 351
360 360 360 359 359 359 358 358 358 358 358 359 360 360 360 360 361 362 362 362 364 364 363 363 363 363 364 364 362 361 361 361 360 360 360 359 358 357 356 355 354 352
360 360 360 359 359 360 359 359 358 358 358 358 360 360 360 360 360 362 363 362 363 364 363 363 363 363 364 364 363 361 361 361 360 360 360 360 359 357 356 355 354 353
360 361 361 361 360 360 360 360 360 360 359 359 360 361 361 361 360 361 363 363 363 363 364 363 363 364 363 363 363 362 361 361 361 360 360 360 359 358 356 355 355 354
361 361 361 362 362 361 362 361 360 360 360 360 361 361 362 361 361 361 363 363 363 363 364 363 363 363 362 360 361 362 361 361 361 360 360 360 359 359 357 356 355 354
363 363 363 363 363 362 363 363 362 362 362 361 361 362 363 362 362 362 362 363 363 363 363 363 362 361 361 359 358 359 360 361 361 361 360 360 359 359 358 357 355 354
364 364 364 364 364 364 363 364 364 363 363 363 363 363 363 363 363 362 363 362 363 363 363 363 362 360 359 359 358 357 357 359 361 361 360 360 359 359 358 357 356 355
366 365 365 365 366 365 364 365 365 364 364 364 364 364 364 364 363 363 362 362 362 363 363 363 362 360 358 357 358 357 356 357 359 360 360 360 359 359 359 357 357 355
367 366 366 366 366 366 365 366 365 365 365 364 364 364 364 363 363 362 362 362 361 362 362 362 362 361 359 357 357 357 356 355 357 359 360 359 359 359 358 358 357 356
367 367 366 366 367 366 366 366 365 365 365 364 364 364 363 362 362 361 361 361 360 361 360 361 362 361 359 358 356 356 356 355 355 357 359 359 359 359 358 357 357 356
367 366 366 366 366 366 366 366 365 365 365 364 364 364 363 362 361 361 361 360 360 360 360 360 361 360 359 358 357 356 356 355 354 356 358 359 358 359 358 358 357 357
367 366 366 365 365 366 366 366 366 366 365 365 364 364 363 362 362 361 360 360 360 359 360 360 360 359 358 357 356 356 356 355 354 355 356 358 358 358 357 356 356 357
365 365 365 365 365 367 366 366 366 366 365 365 365 364 364 363 362 362 361 360 360 359 360 360 359 360 359 357 356 356 355 355 354 354 356 357 357 357 355 355 355 355
364 364 365 365 365 366 366 366 366 365 365 365 365 364 364 363 362 362 361 361 360 359 359 359 359 359 359 358 357 356 355 355 354 354 355 356 357 357 355 355 355 355
364 364 365 365 366 366 365 365 365 365 364 365 365 364 364 363 362 361 361 361 360 360 360 359 359 359 359 358 357 356 356 354 354 355 355 356 357 356 355 356 356 355
Wind_Speed
26 25 24 25 24 23 22 21 20 20 20 20 19 19 19 20 19 18 18 18 17 18 18 18 18 17 17 16 15 14 13 13 12 11 12 13 13 13 12 12 11 10
28 26 26 26 25 23 23 22 21 20 21 21 20 19 18 18 18 19 19 19 18 18 18 18 19 18 18 17 16 15 14 14 14 13 13 14 14 13 13 13 12 11
30 28 29 29 26 24 23 22 21 21 21 21 21 21 19 18 18 19 20 20 19 18 18 19 19 19 19 18 17 16 16 16 15 14 13 14 14 14 13 13 13 12
32 30 31 30 26 24 23 22 22 22 21 22 22 22 20 19 19 19 20 20 20 18 18 19 19 19 19 19 18 18 17 16 17 15 15 15 15 14 13 13 13 12
34 33 32 29 26 25 24 24 25 24 23 23 22 22 22 21 20 19 19 20 20 20 19 19 20 20 19 19 20 19 18 17 17 17 16 16 16 15 14 14 14 13
33 34 32 29 27 27 26 26 26 25 24 24 23 22 22 22 22 21 20 20 20 21 20 20 20 20 20 20 21 20 19 18 18 17 18 18 17 16 15 14 15 14
33 33 33 31 29 29 28 27 27 26 26 24 23 23 23 23 23 23 22 22 21 21 21 21 21 21 20 20 21 21 20 19 19 19 19 20 18 17 16 15 15 15
34 33 33 33 31 30 30 29 28 28 28 26 25 25 25 25 24 24 24 23 23 22 22 22 22 22 21 21 22 22 21 20 20 20 21 20 20 19 17 16 16 16
33 33 33 33 33 32 32 31 30 29 28 28 28 27 26 27 26 25 24 24 24 23 23 23 22 22 22 22 22 23 23 21 21 21 22 21 21 20 19 17 17 17
33 32 32 33 33 33 33 33 31 29 29 30 30 29 28 28 27 26 25 25 25 25 24 24 23 23 23 23 23 24 24 23 22 22 22 22 21 21 20 19 19 18
34 34 33 34 34 34 33 33 31 30 30 30 31 31 30 28 27 27 27 26 27 26 26 25 25 24 24 24 24 24 24 24 24 23 23 22 22 22 21 21 20 20
35 35 35 35 35 34 33 32 33 32 31 31 31 31 31 29 28 28 28 28 27 27 27 27 26 26 26 26 25 25 25 25 25 24 24 23 23 23 23 22 22 22
36 36 36 36 35 34 33 32 33 34 33 32 31 31 31 31 30 29 29 29 28 27 27 27 27 27 26 27 27 26 26 26 26 25 24 24 24 24 24 24 23 23
36 35 35 35 35 33 33 33 34 34 34 32 31 30 31 32 31 30 29 28 28 28 28 28 28 28 28 27 28 28 27 26 26 25 24 23 24 24 25 24 24 24
33 32 32 33 33 33 34 34 34 33 33 32 31 31 30 31 31 30 29 28 28 28 29 29 28 29 29 30 29 29 28 27 26 26 25 24 23 24 25 25 25 25
31 31 31 32 33 34 34 34 33 33 32 32 32 31 29 29 29 29 29 29 29 29 29 29 29 29 31 34 34 31 28 27 26 25 26 25 24 24 25 26 26 26
30 31 31 32 33 33 32 32 32 31 31 31 31 30 29 29 29 30 30 28 28 29 29 30 30 30 33 36 38 36 31 27 25 25 25 25 25 24 25 26 26 25
29 30 30 31 32 32 31 31 30 30 29 30 30 31 29 28 28 29 29 28 27 28 29 30 30 32 35 37 39 40 38 30 25 24 25 26 26 26 25 25 25 25
28 29 30 30 30 30 29 29 30 31 31 30 31 30 29 29 29 29 29 29 28 28 29 29 29 32 37 39 39 41 42 37 28 24 25 26 26 26 26 25 25 24
29 29 30 29 29 29 29 29 31 32 32 31 30 29 30 31 30 29 31 31 30 30 30 29 29 31 36 40 41 40 42 42 35 26 24 25 26 26 25 25 26 25
30 31 30 29 29 28 29 30 31 32 32 31 29 29 30 32 30 30 33 34 31 31 32 32 31 32 35 38 41 41 41 43 39 31 25 25 25 25 25 26 27 27
31 31 30 29 29 28 30 31 32 32 31 30 29 27 28 30 30 31 33 33 32 32 33 34 33 33 34 37 40 41 40 42 42 35 30 28 26 25 25 26 27 29
29 29 28 28 27 28 30 31 31 30 29 27 27 26 27 29 29 30 31 31 33 33 34 35 34 34 35 37 39 40 41 43 43 38 33 31 29 27 26 27 30 30
26 26 26 26 27 29 30 29 28 27 26 26 26 26 27 27 27 28 28 29 32 34 34 34 34 33 36 38 40 41 43 45 42 38 36 33 30 29 29 29 32 33
24 25 26 28 29 29 28 26 25 24 24 25 26 26 26 26 25 26 26 28 31 33 34 35 34 34 36 39 40 42 45 45 40 37 37 34 30 30 30 30 31 33
25 27 28 28 28 27 26 25 25 24 24 25 25 25 24 25 26 26 26 28 30 31 32 35 35 35 36 39 40 42 46 46 40 37 37 35 31 30 29 28 29 30
Wind_Direction
212 210 213 215 215 215 214 213 212 210 210 211 215 217 218 218 215 212 212 213 214 214 214 216 220 223 225 223 225 225 222 222 222 217 216 218 218 214 210 208 207 208
213 211 215 217 214 212 213 213 212 211 211 213 216 218 219 218 213 211 211 210 213 216 216 218 221 224 225 223 222 221 219 220 222 219 216 218 218 213 209 209 208 207
212 211 215 216 213 211 212 212 212 213 213 214 216 218 219 218 214 212 211 210 213 217 218 219 220 222 224 222 219 218 216 217 222 221 218 218 217 213 209 209 211 208
210 211 215 216 212 212 211 210 212 213 214 215 216 217 218 217 214 211 210 210 212 215 216 218 219 220 223 222 219 217 214 216 222 221 219 220 218 213 209 209 212 209
208 210 214 215 212 211 209 210 212 212 213 216 215 215 215 214 213 212 210 209 211 214 215 216 218 220 221 221 219 216 213 214 220 220 218 220 219 213 210 210 210 207
206 207 210 212 210 209 209 211 213 212 214 215 213 213 214 213 213 213 211 209 210 212 214 214 216 219 219 219 219 217 213 212 215 217 218 220 219 214 209 209 209 206
204 205 207 208 209 209 209 211 212 212 214 215 213 213 213 213 214 213 211 210 210 211 211 212 213 215 216 216 217 217 212 210 212 214 217 219 219 215 211 209 208 207
203 204 205 206 208 209 210 211 211 211 212 212 213 214 214 214 214 213 211 209 210 210 209 210 210 212 213 213 215 215 211 210 212 212 214 217 218 216 211 207 207 208
203 204 204 205 206 208 210 212 212 211 210 210 213 215 215 215 215 213 210 208 209 209 208 209 209 210 212 212 213 214 212 212 212 210 211 214 216 216 210 207 207 208
204 205 205 206 207 209 211 211 211 210 210 210 212 214 215 215 214 213 210 207 207 208 206 208 209 209 211 213 212 213 214 215 214 211 210 211 213 213 210 209 209 208
203 204 206 207 208 210 211 210 211 211 210 210 211 214 214 213 212 211 209 207 207 208 206 207 209 209 212 213 214 214 215 217 216 213 211 211 211 212 211 210 210 211
203 204 206 207 209 210 210 211 211 212 211 211 211 212 212 211 211 209 208 208 208 208 207 207 209 211 213 214 215 215 215 217 217 215 213 212 211 211 212 211 212 213
203 204 205 207 208 209 209 210 212 212 212 212 212 212 211 211 210 209 208 208 208 208 207 208 209 211 213 215 215 215 215 216 217 216 214 212 211 212 213 214 213 214
203 203 204 205 206 207 207 209 210 211 212 212 211 211 212 211 210 207 207 208 208 208 208 208 210 212 213 214 215 215 215 215 215 215 214 212 211 212 214 215 215 215
201 201 202 203 204 205 206 207 209 210 211 211 211 211 212 212 210 208 207 207 207 207 207 208 210 212 213 214 215 214 213 214 214 214 214 213 212 212 214 216 216 216
197 198 199 200 202 203 204 205 207 208 209 209 210 210 210 210 210 209 208 207 207 206 206 208 210 213 216 217 218 215 212 212 213 212 214 215 213 212 213 215 216 217
194 195 196 198 200 202 202 202 204 206 207 208 209 209 210 210 209 209 210 210 209 207 207 209 211 214 217 219 220 219 214 210 210 211 212 215 216 213 213 214 216 218
192 193 195 198 200 200 200 200 201 204 207 207 208 209 209 209 209 209 211 211 211 211 211 213 215 216 217 219 221 222 218 212 210 211 212 214 217 216 214 214 215 216
193 194 196 198 198 197 197 198 199 203 206 207 208 208 209 210 211 212 215 214 213 216 216 216 217 217 217 218 220 222 221 217 212 213 214 215 218 217 214 214 213 214
194 196 197 198 196 194 196 198 201 205 208 208 209 209 211 215 215 216 220 220 218 220 223 221 221 219 218 219 220 222 224 221 216 215 216 217 220 219 216 214 212 212
196 198 198 198 196 194 197 200 204 207 209 210 211 211 213 217 218 219 223 223 221 223 226 226 225 221 219 219 220 222 224 223 219 217 219 220 221 221 218 217 215 213
197 198 198 198 197 197 200 203 206 209 209 209 212 214 215 217 219 222 224 223 222 223 225 227 228 224 220 220 221 221 223 223 220 217 218 220 220 220 219 220 220 216
198 198 198 199 199 200 203 206 208 210 209 208 210 213 215 216 217 221 224 224 223 223 223 226 228 226 224 222 220 219 220 220 218 217 218 219 219 219 220 223 226 219
198 199 198 198 200 203 206 207 209 209 208 208 210 212 215 216 215 217 221 223 225 225 224 226 228 227 226 224 221 220 219 217 215 216 218 219 218 219 220 223 227 225
198 198 198 199 202 205 206 206 208 210 209 210 212 215 217 218 218 219 221 224 228 229 227 227 229 228 228 226 223 221 219 215 214 216 219 218 216 216 219 222 226 227
198 199 201 202 203 204 205 206 207 209 210 211 214 216 218 219 220 221 222 225 228 229 228 228 229 230 231 228 224 222 220 216 214 217 218 216 213 213 217 219 221 224